This is the latest recevied weather packets stored in our database for station/object AE5HO. If no packets are shown the sender has not sent any weather packets the latest 10 day(s).
| Time | Temp. | Humidity | Pressure | Rain* | Wind** | Luminosity | Snow |
|---|---|---|---|---|---|---|---|
| 1787983479 | 30.56° C | 55% | 1017.3 hPa | 0 mm | - | 0 W/m² | - |
| 1787983174 | 31.11° C | 51% | 1017.1 hPa | 0 mm | - | 0 W/m² | - |
| 1787982871 | 31.11° C | 51% | 1017 hPa | 0 mm | - | 0 W/m² | - |
| 1787982570 | 31.11° C | 52% | 1017.2 hPa | 0 mm | - | 0 W/m² | - |
| 1787982267 | 31.11° C | 51% | 1017 hPa | 0 mm | - | 0 W/m² | - |
| 1787981962 | 30.56° C | 52% | 1016.9 hPa | 0 mm | - | 0 W/m² | - |
| 1787981658 | 30.56° C | 52% | 1017.1 hPa | 0 mm | - | 0 W/m² | - |
| 1787981357 | 30.56° C | 53% | 1017.1 hPa | 0 mm | - | 0 W/m² | - |
| 1787981058 | 30° C | 53% | 1016.9 hPa | 0 mm | - | 0 W/m² | - |
| 1787980756 | 29.44° C | 55% | 1017.1 hPa | 0 mm | - | 0 W/m² | - |
| 1787980452 | 29.44° C | 57% | 1016.9 hPa | 0 mm | - | 0 W/m² | - |
| 1787980147 | 28.89° C | 59% | 1016.9 hPa | 0 mm | - | 0 W/m² | - |
| 1787979842 | 28.89° C | 58% | 1017 hPa | 0 mm | - | 0 W/m² | - |
| 1787979541 | 28.89° C | 59% | 1016.8 hPa | 0 mm | - | 0 W/m² | - |
| 1787979236 | 28.89° C | 58% | 1017.2 hPa | 0 mm | - | 0 W/m² | - |
| 1787978936 | 28.89° C | 57% | 1017 hPa | 0 mm | - | 0 W/m² | - |
| 1787978635 | 28.89° C | 57% | 1016.7 hPa | 0 mm | - | 0 W/m² | - |
| 1787978331 | 28.89° C | 57% | 1016.8 hPa | 0 mm | - | 0 W/m² | - |
| 1787978030 | 29.44° C | 56% | 1016.7 hPa | 0 mm | - | 0 W/m² | - |
| 1787977725 | 29.44° C | 57% | 1016.7 hPa | 0 mm | - | 0 W/m² | - |
| 1787977420 | 29.44° C | 57% | 1016.6 hPa | 0 mm | - | 0 W/m² | - |
| 1787977116 | 29.44° C | 55% | 1016.9 hPa | 0 mm | - | 0 W/m² | - |
| 1787976812 | 29.44° C | 55% | 1016.5 hPa | 0 mm | - | 0 W/m² | - |
| 1787976511 | 30° C | 54% | 1016.6 hPa | 0 mm | - | 0 W/m² | - |
| 1787976206 | 30° C | 55% | 1016.6 hPa | 0 mm | - | 0 W/m² | - |
* Rain latest hour (hover to see other rain measurements)
** Current wind speed in m/s (hover to see current wind gust speed)